SCP
0 0 0 0 0 0 0 0 0 0 0 0 0 0 0 1 1 1 1 1 1 0 0 1 1 1 1 1 1 1 1 1 1 1 1 1 1 1 0 0 0 0 0 0
0 0 0 0 0 0 0 0 0 0 0 0 0 1 1 1 1 1 1 1 1 1 1 1 1 1 1 1 1 2 1 1 1 1 1 1 1 1 1 1 1 0 0 0
0 0 0 0 0 0 0 0 0 0 1 1 1 1 1 1 1 1 1 1 1 1 1 1 1 1 1 1 2 2 2 1 1 1 1 1 1 1 1 1 1 1 1 0
0 0 0 0 0 0 0 0 1 1 1 1 1 1 1 1 1 1 1 1 1 1 1 1 1 1 1 2 2 2 2 1 1 1 1 1 1 1 1 1 1 1 1 1
0 0 0 0 0 0 0 1 1 1 1 1 1 1 1 1 1 1 1 1 1 2 2 2 2 2 2 2 2 2 2 1 1 1 1 1 1 1 1 1 1 1 1 1
0 0 0 0 0 0 0 0 1 1 1 1 1 1 1 1 1 1 1 1 1 2 2 2 2 2 2 2 2 2 1 1 1 1 2 2 2 2 2 2 1 1 1 1
0 0 0 0 0 0 0 0 0 0 1 1 1 1 1 1 1 1 1 1 2 2 2 2 1 1 2 2 2 1 1 1 2 2 2 2 2 2 2 1 1 1 1 1
0 0 0 0 0 0 0 0 0 1 1 1 1 1 1 2 1 1 1 1 2 2 2 1 1 1 1 1 1 1 1 2 2 2 2 2 2 2 1 1 1 1 1 0
0 0 0 0 0 0 0 0 1 1 1 1 1 1 2 2 1 1 1 1 2 2 2 1 1 1 1 1 1 1 1 2 2 2 2 2 2 1 1 1 1 1 1 0
0 0 0 0 0 0 0 0 1 1 1 1 1 1 1 1 1 1 1 1 1 1 1 1 1 1 1 1 1 1 2 2 2 2 2 2 1 1 1 1 1 1 0 0
0 0 0 0 0 0 0 0 1 1 1 1 1 1 1 1 1 1 1 1 1 1 1 1 1 1 1 1 1 1 1 2 2 2 1 1 1 1 1 1 1 0 0 0
0 0 0 0 0 0 0 0 0 0 0 0 0 0 1 1 1 1 1 1 1 1 1 1 2 2 1 1 1 1 1 1 1 1 1 1 1 0 0 0 0 0 0 0
0 0 0 0 0 0 0 0 0 0 0 0 0 0 0 0 1 1 1 1 1 1 1 2 2 2 2 1 1 1 1 1 1 1 1 1 1 0 0 0 0 0 0 0
0 0 0 0 0 0 0 0 0 0 0 0 0 0 0 1 1 1 1 1 1 1 1 2 2 2 2 1 1 1 1 1 1 1 1 1 1 0 0 0 0 0 0 0
0 0 0 0 0 0 0 0 0 0 0 0 0 0 0 0 0 1 1 1 1 1 2 2 2 2 2 1 1 1 1 1 1 1 1 1 1 0 0 0 0 0 0 0
0 0 0 0 0 0 0 1 0 0 0 0 0 0 0 0 0 1 1 1 1 2 2 2 2 2 2 1 1 1 1 1 1 1 1 1 1 1 0 0 0 0 0 0
0 0 0 0 0 0 0 0 0 0 0 0 0 0 0 0 1 1 1 1 1 2 2 2 2 1 1 1 1 1 1 1 1 1 1 1 1 1 0 0 0 0 0 0
0 0 0 0 0 0 0 0 0 0 0 0 0 0 0 1 1 1 1 1 1 1 1 1 1 1 1 1 1 1 0 0 0 0 0 0 0 0 0 0 0 0 0 0
0 0 0 0 0 0 0 0 0 0 0 0 0 0 0 1 1 1 1 1 1 1 1 1 1 1 1 1 0 0 0 0 0 0 0 0 0 0 0 0 0 0 0 0
0 0 0 0 0 0 0 0 0 0 0 0 0 0 0 0 0 0 0 0 0 0 0 0 0 0 0 0 0 0 0 0 0 0 0 0 0 0 0 0 0 0 0 0
0 0 0 0 0 0 0 0 0 0 0 0 0 0 0 0 0 0 0 0 0 0 0 0 0 0 0 0 0 0 0 0 0 0 0 0 0 0 0 0 0 0 0 0
0 0 0 0 0 0 0 0 0 0 0 0 0 0 0 0 0 0 0 0 0 0 0 0 0 0 0 0 0 0 0 0 0 0 0 0 0 0 0 0 0 0 0 0
0 0 0 0 0 0 0 0 0 0 0 0 0 0 0 0 0 0 0 0 0 0 0 0 0 0 0 0 0 0 0 0 0 0 0 0 0 0 0 0 0 0 0 0
0 0 0 0 0 0 0 0 0 0 0 0 0 0 0 0 0 0 0 0 0 0 0 0 0 0 0 0 0 0 0 0 0 0 0 0 0 0 0 0 0 0 0 0
0 0 0 0 0 0 0 0 0 0 0 0 0 0 0 0 0 0 0 0 0 0 0 0 0 0 0 0 0 0 0 0 0 0 0 0 0 0 0 0 0 0 0 0
0 0 0 0 0 0 0 0 0 0 0 0 0 0 0 0 0 0 0 0 0 0 0 0 0 0 0 0 0 0 0 0 0 0 0 0 0 0 0 0 0 0 0 0
0 0 0 0 0 0 0 0 0 0 0 0 0 0 0 0 0 0 0 0 0 0 0 0 0 0 0 0 0 0 0 0 0 0 0 0 0 0 0 0 0 0 0 0
Wind_Speed
3 2 1 1 2 2 2 5 7 6 6 7 6 6 5 5 5 5 5 6 7 7 6 6 5 6 7 7 8 8 8 8 8 7 6 6 5 5 4 4 4 3 3 2
3 4 4 4 4 3 2 3 6 6 2 2 2 4 5 5 5 5 5 5 5 6 6 6 6 6 6 7 8 8 9 8 7 7 6 6 6 5 4 4 3 3 3 2
1 3 5 4 3 2 3 2 5 5 4 3 4 4 5 5 4 3 3 4 5 6 6 7 7 7 8 8 7 8 8 8 7 7 7 7 7 5 5 5 4 3 3 3
2 5 1 6 1 6 7 4 5 6 5 5 6 5 3 3 4 3 3 4 4 5 5 4 4 4 5 7 7 7 7 7 7 7 7 6 6 6 5 4 4 4 4 4
3 2 3 4 3 1 5 3 3 6 5 4 4 4 2 1 3 3 2 3 3 4 4 3 3 4 5 5 6 6 6 6 7 8 8 7 7 6 5 5 4 4 4 4
4 3 4 5 5 1 8 2 2 4 4 3 4 3 3 2 1 1 1 1 2 2 3 4 3 5 5 5 5 6 6 6 6 6 7 7 7 6 4 5 5 4 3 3
4 2 4 5 5 3 5 4 3 1 3 4 2 4 5 2 1 0 2 2 2 3 3 4 4 5 5 4 5 6 5 5 5 5 6 6 5 4 4 4 4 4 4 3
3 3 5 5 4 3 4 2 1 1 2 3 2 2 2 2 1 1 1 2 3 2 2 1 3 4 4 4 4 3 4 4 4 5 5 5 5 4 4 5 5 4 3 2
5 5 3 2 3 2 3 4 2 2 2 4 4 2 2 2 2 1 1 2 2 2 1 0 1 4 4 4 3 4 5 4 4 3 3 4 4 4 4 4 4 4 3 3
3 1 2 4 5 4 5 4 3 3 3 4 4 3 2 1 1 1 1 1 1 1 1 1 1 2 3 3 4 5 5 4 4 4 3 3 3 3 3 4 3 3 3 3
3 1 4 5 4 4 5 6 6 5 4 4 4 3 1 1 1 1 1 1 0 1 2 2 2 2 3 4 5 5 5 4 4 4 4 3 2 2 3 3 4 5 4 4
3 3 2 2 2 3 4 3 3 3 4 4 2 1 1 1 2 1 1 1 1 1 2 2 2 2 2 3 5 6 5 4 3 3 3 3 3 2 3 1 2 4 5 5
4 2 2 2 2 3 2 2 2 1 0 0 1 0 0 1 1 1 1 1 2 2 2 2 2 2 2 3 5 5 5 4 3 3 4 4 3 3 2 2 3 1 3 5
1 3 1 1 1 2 2 3 2 1 1 1 1 1 1 0 1 1 2 3 3 1 1 1 1 2 2 3 4 4 4 5 4 4 4 4 4 4 3 3 1 1 1 2
1 1 2 1 1 2 2 2 2 2 2 2 2 2 1 1 1 2 2 1 0 1 1 2 2 2 2 3 4 4 4 4 4 4 4 4 3 3 3 3 3 2 1 0
1 2 2 3 3 3 3 3 2 3 3 2 3 3 3 2 1 1 0 1 2 2 2 2 2 2 2 2 3 3 3 5 5 4 3 3 3 3 3 3 3 3 3 3
2 2 2 3 3 3 4 3 2 2 3 3 4 3 2 1 0 0 0 1 1 1 2 2 3 3 3 3 3 2 2 3 5 3 3 3 4 4 4 4 3 3 3 4
1 2 2 2 1 2 4 4 3 2 2 3 2 0 0 1 1 1 1 0 1 1 1 2 2 2 2 2 2 2 2 2 3 3 3 3 3 4 4 4 4 4 3 3
1 1 2 1 1 1 2 3 3 2 2 2 1 1 2 2 1 1 1 1 1 1 3 2 2 2 2 2 2 2 3 2 2 2 2 3 2 2 3 3 3 4 3 3
3 3 2 2 3 2 2 2 2 2 2 2 2 1 1 1 1 1 1 1 2 3 3 2 1 1 1 2 3 2 3 3 3 2 2 2 2 2 2 3 3 3 3 3
3 3 3 3 3 2 2 2 2 2 3 2 1 1 1 1 1 1 1 1 4 3 1 1 1 1 1 2 3 2 2 2 3 2 2 2 2 2 2 2 3 3 3 3
3 3 3 3 3 3 3 2 2 2 2 2 2 1 0 0 1 1 2 2 3 2 1 1 1 1 1 2 2 2 2 2 2 2 2 2 2 2 2 2 2 3 3 3
3 2 3 3 3 3 3 3 3 2 2 2 2 2 2 2 2 1 2 2 1 1 1 1 1 0 1 2 1 2 1 2 2 2 2 2 2 2 2 3 2 2 2 2
2 2 3 3 2 2 3 4 3 3 2 2 1 2 2 1 1 1 1 1 1 1 1 1 2 1 1 1 1 1 1 2 2 2 2 2 1 1 2 2 2 2 3 3
2 2 2 2 2 2 3 3 3 3 2 2 2 2 1 1 1 1 1 1 1 1 1 1 2 2 1 1 1 1 1 1 1 2 2 1 1 1 1 2 2 2 2 2
2 1 1 1 1 1 1 1 1 2 2 2 2 2 2 1 0 0 0 1 1 1 1 0 1 1 1 1 1 1 1 1 1 1 1 1 1 1 1 1 1 1 2 2
2 2 2 2 2 1 1 1 1 1 1 1 1 2 1 1 1 1 1 1 1 1 1 1 0 0 0 0 0 1 1 1 1 0 0 0 1 1 1 1 1 1 1 1
Wind_Direction
193 214 54 356 338 11 118 164 163 188 181 209 199 186 173 156 149 138 156 165 168 172 179 178 177 181 175 175 176 173 169 174 183 184 175 168 166 167 162 157 155 148 140 135
14 20 41 20 359 30 64 108 126 124 143 225 173 125 123 130 136 131 148 164 166 174 181 183 181 183 179 177 178 172 174 181 179 175 172 173 174 170 161 157 156 149 153 153
332 343 42 351 322 86 77 86 138 147 188 124 99 114 132 126 125 129 143 163 168 179 187 192 189 184 184 181 172 171 175 177 176 175 177 181 179 171 169 171 165 164 166 159
80 49 193 244 292 99 85 57 93 116 121 121 140 145 126 126 140 148 151 152 179 185 187 193 191 182 174 163 160 163 172 176 178 176 179 177 174 178 179 172 174 179 181 177
106 123 277 300 329 81 107 37 62 110 107 109 132 90 55 154 157 168 179 183 191 185 177 169 168 166 150 158 159 162 177 188 184 179 177 176 180 184 180 174 182 185 179 174
115 140 218 256 310 82 97 54 326 115 130 143 110 101 248 254 162 121 130 160 157 138 128 140 159 151 143 159 167 180 188 190 180 176 176 180 182 180 179 175 180 175 176 179
139 178 253 275 306 51 103 213 267 162 151 140 152 197 209 205 245 148 119 134 134 136 140 160 163 151 152 163 188 196 184 171 169 180 181 180 176 175 171 169 166 169 172 184
142 169 249 302 24 93 187 196 118 79 94 104 115 120 111 106 80 24 56 92 122 123 136 154 148 145 158 185 199 174 159 162 169 178 178 172 169 171 169 167 167 174 174 184
166 200 250 22 101 143 132 96 61 65 76 96 86 68 67 74 69 54 58 59 67 105 115 357 161 154 172 203 182 164 155 165 168 168 163 161 166 172 172 173 174 180 177 183
78 15 22 39 48 43 59 63 52 78 87 89 85 67 57 42 21 5 21 58 67 100 153 238 230 181 181 177 160 157 160 166 166 163 162 156 161 167 172 177 180 182 183 188
86 349 23 18 34 49 46 42 38 32 46 63 66 46 34 350 320 286 286 265 194 187 206 223 217 202 178 166 156 163 166 166 165 164 158 151 148 155 173 189 194 185 190 186
191 215 163 258 313 40 44 25 24 36 22 21 48 35 3 309 278 268 274 270 252 239 214 212 195 206 202 166 156 159 164 169 168 167 154 151 141 91 44 90 169 180 184 179
177 178 178 230 352 16 15 343 348 329 197 280 293 353 114 251 273 263 263 275 250 233 214 194 187 194 193 168 160 163 167 170 167 165 162 162 164 166 157 22 38 104 190 191
112 114 97 286 297 322 337 327 328 325 264 214 238 317 344 301 284 266 244 251 244 225 199 183 181 190 190 164 157 159 164 170 169 177 178 177 179 182 176 169 165 338 325 207
20 130 184 225 345 329 339 355 341 325 310 306 304 312 313 291 278 275 264 241 110 158 183 174 170 209 201 167 163 163 166 171 174 178 179 176 177 178 176 175 172 173 141 304
32 37 35 25 360 327 337 332 306 298 291 287 298 301 292 263 257 276 266 145 142 182 193 181 201 218 196 165 163 166 170 177 174 175 178 178 181 182 183 182 186 190 192 191
71 342 332 327 322 323 311 291 276 282 290 293 274 257 263 275 32 114 210 161 161 199 196 199 221 221 193 172 169 175 171 172 176 179 186 189 187 187 187 188 195 206 213 199
198 240 251 258 267 309 310 318 319 307 297 290 293 106 149 190 218 237 240 88 46 8 283 241 228 209 195 186 177 171 168 169 173 182 184 185 187 187 189 192 193 196 207 201
24 5 339 327 292 271 278 297 302 311 315 317 319 205 206 215 214 216 168 123 150 253 265 253 228 200 192 184 166 160 159 155 155 166 169 165 177 184 183 187 192 200 200 199
3 1 355 343 337 325 307 313 321 324 316 316 311 274 242 225 185 177 178 243 251 241 236 241 220 207 201 183 158 150 153 157 160 164 163 168 180 190 189 193 198 203 203 205
342 348 341 323 320 323 317 318 328 323 319 316 309 280 266 266 224 182 178 282 283 258 227 227 227 227 206 184 167 158 157 159 166 174 179 188 194 199 202 205 212 214 212 212
332 337 333 327 327 324 319 324 324 313 306 304 293 264 238 270 286 288 256 245 262 256 213 205 227 204 183 165 155 158 162 167 172 174 180 190 195 203 213 217 221 222 218 217
309 311 320 306 290 296 316 324 320 307 296 282 260 244 234 235 228 219 279 282 268 220 191 199 217 188 156 139 147 160 165 172 188 197 199 200 206 210 214 221 228 231 226 226
313 315 305 300 319 338 327 317 320 320 316 298 259 235 217 242 303 280 234 262 274 253 221 202 197 199 183 172 170 175 182 187 196 198 196 198 208 217 221 221 226 234 234 232
303 293 288 302 325 312 305 317 339 344 347 336 313 302 286 223 215 265 275 239 216 231 272 251 207 209 207 202 195 191 191 193 192 192 183 176 190 216 238 242 241 238 233 230
309 305 302 280 251 274 296 328 341 340 347 338 327 325 334 338 12 59 14 344 333 295 272 253 195 216 217 214 203 178 179 177 154 130 146 156 177 196 238 258 261 254 247 241
357 3 10 4 339 325 325 331 338 322 303 291 303 317 333 2 24 30 29 16 17 26 7 22 69 163 244 262 187 161 146 137 127 104 198 216 221 223 229 233 253 252 253 271